Regional Weather Roundup
Issued by NWS

Home | Current Version | Previous Version | Graphics & Text | Print | Product List | Glossary On
Versions: 1 2 3 4 5 6 7 8 9 10 11 12 13 14 15 16 17 18 19 20 21 22 23 24 25 26 27 28 29 30 31 32 33 34 35 36 37 38 39 40 41 42 43 44 45 46 47 48 49 50
000
ASUS45 KSLC 250310
RWRUT

UTAH REGIONAL WEATHER ROUNDUP
NATIONAL WEATHER SERVICE SALT LAKE CITY UT
900 PM MDT THU MAY 24 2018

UTZ001>011-023>025-250400-

NORTHERN UTAH

CITY           SKY/WX    TMP DP  RH WIND       PRES   REMARKS
BRIGHAM CITY   CLEAR     76  45  33 CALM      30.01F
HILL AFB       CLEAR     73  38  29 NW6       30.03S
LOGAN          CLEAR     62  53  72 N9        30.03R
OGDEN          CLEAR     73  38  27 N6        30.01S
SALT LAKE CITY CLEAR     76  43  30 N8        29.98S
TOOELE VALLEY  CLEAR     68  52  56 CALM      30.01R
WENDOVER       CLEAR     80  32  17 E7        29.97S
HEBER CITY       N/A     63  34  34 CALM      30.08R
WEST JORDAN    CLEAR     70  45  41 W7        30.02S

$$

UTZ011>015-024>027-250400-

CENTRAL/NORTHEAST UTAH

CITY           SKY/WX    TMP DP  RH WIND       PRES   REMARKS
PROVO AIRPORT  CLEAR     73  60  63 SW3       30.01S
MOAB/CANYONLAN CLEAR     76  22  13 N8        29.99R
DELTA          CLEAR     75  25  15 NE3       30.01S
PRICE          CLEAR     73  24  16 SE8       30.09R
ROOSEVELT      CLEAR     73  34  23 CALM      30.06S
VERNAL         CLEAR     68  38  33 S3        30.06R

$$

UTZ013>016-019>022-027-250400-

SOUTHERN UTAH

CITY           SKY/WX    TMP DP  RH WIND       PRES   REMARKS
BRYCE CANYON   CLEAR     57  23  26 S6        30.24R
CEDAR CITY     CLEAR     66  21  18 SW9       30.07R
MILFORD        CLEAR     72  17  12 SW12      30.01S
ST GEORGE      CLEAR     85  28  12 W9        29.92R
HANKSVILLE     CLEAR     81  14   8 S7        30.01R
BLANDING         N/A     72  17  12 CALM      30.19S

$$

REGIONAL REPORTS     COLORADO/ARIZONA

CITY           SKY/WX    TMP DP  RH WIND       PRES   REMARKS
CRAIG, CO      CLEAR     56  44  64 CALM      30.16R
GRAND JUNCTION CLEAR     75  24  15 N8        30.04R
RIFLE, CO      CLEAR     66  21  18 SE3       30.09R
MONTROSE, CO   NOT AVBL
CORTEZ, CO     CLEAR     60  30  32 SE6       30.14R
COLORADO CITY    N/A     73  25  16 W8        30.08R
PAGE, AZ       CLEAR     83  20   9 NE5       29.98R
GRAND CANYON   CLEAR     68  20  16 SW10      30.20R
KINGMAN, AZ      N/A    N/A N/A N/A MISG      30.00R
FLAGSTAFF, AZ  CLEAR     61  23  23 SW7       30.25R

$$

REGIONAL REPORTS    NEVADA/IDAHO/WYOMING

CITY           SKY/WX    TMP DP  RH WIND       PRES   REMARKS
LAS VEGAS, NV  PTCLDY    88  20   8 SE12G18   29.87R
ELY, NY        CLEAR     63  25  23 S9        30.09R
ELKO, NV       CLEAR     73  40  30 E6        29.98S
POCATELLO, ID  MOCLDY    67  48  50 S5        30.05F
BURLEY, ID     PTCLDY    66  52  60 S3        30.02S
FORT BRIDGER,    N/A     64  32  30 N3        30.23R
EVANSTON, WY   CLEAR     61  37  41 NW6       30.20R
ROCK SPRINGS,  CLEAR     61  38  42 SW7       30.19R

$$



USA.gov is the U.S. government's official web portal to all federal, state and local government web resources and services.